period_start,C,m1,H,J0,J1,J2,J3,J4,J5,JA,JB,JC,JD,JJ,JK,JN,#
2015-10-10 00:03:54,0.02,3.09,0.00,23.10,27.82,30.68,14.66,48.67,1025.87,2033.39,2395.91,2529.00,2731.98,599.62,600.80,43.87,0000 0000 0000 0000 000000
2015-10-10 00:08:55,0.05,3.10,0.00,23.05,27.82,30.65,14.70,48.74,1025.84,2033.65,2395.22,2528.93,2731.70,599.61,600.99,43.93,0000 0000 0000 0000 000000
2015-10-10 00:13:56,0.04,3.10,0.00,23.17,27.83,30.69,14.69,48.72,1025.81,2033.66,2395.00,2528.44,2731.05,600.02,601.15,43.98,0000 0000 0000 0000 000000
2015-10-10 00:18:58,0.01,3.10,0.00,23.01,27.83,30.71,14.68,48.68,1025.85,2033.57,2394.62,2528.02,2730.98,600.34,601.58,44.03,0000 0000 0000 0000 000000
2015-10-10 00:23:59,0.01,3.10,0.00,23.01,27.83,30.66,14.66,48.74,1025.85,2033.43,2394.03,2527.99,2730.52,599.97,601.44,44.08,0000 0000 0000 0000 000000
2015-10-10 00:29:00,0.02,3.10,0.00,23.13,27.84,30.68,14.64,48.67,1025.84,2033.28,2393.98,2527.59,2730.02,600.06,601.18,44.13,0000 0000 0000 0000 000000
2015-10-10 00:34:02,0.03,3.10,0.00,23.07,27.85,30.68,14.60,48.67,1025.85,2033.29,2393.30,2527.07,2729.99,599.86,601.11,44.18,0000 0000 0000 0000 000000
2015-10-10 00:39:03,0.02,3.10,0.00,23.15,27.85,30.70,14.60,48.63,1025.84,2033.38,2393.01,2526.98,2729.59,599.77,600.91,44.23,0000 0000 0000 0000 000000
2015-10-10 00:44:05,0.07,3.11,0.00,23.12,27.85,30.70,14.69,48.73,1025.84,2033.49,2392.77,2526.58,2729.03,599.96,601.17,44.28,0000 0000 0000 0000 000000
2015-10-10 00:49:06,0.01,3.11,0.00,23.20,27.85,30.68,14.63,48.52,1025.86,2033.47,2392.11,2526.06,2728.99,599.91,600.94,44.33,0000 0000 0000 0000 000000
2015-10-10 00:54:07,0.02,3.11,0.00,23.15,27.85,30.69,14.66,48.64,1025.85,2033.53,2392.00,2526.00,2728.80,599.82,600.95,44.38,0000 0000 0000 0000 000000
2015-10-10 00:59:08,-0.01,3.11,0.00,23.24,27.86,30.68,14.61,48.67,1025.85,2033.38,2391.94,2525.97,2728.12,599.68,600.54,44.43,0000 0000 0000 0000 000000
2015-10-10 01:04:09,0.02,3.11,0.00,23.23,27.87,30.69,14.72,48.68,1025.87,2033.17,2391.28,2525.42,2728.00,600.06,601.08,44.48,0000 0000 0000 0000 000000
2015-10-10 01:09:10,0.01,3.11,0.00,23.24,27.87,30.68,14.66,48.73,1025.88,2033.11,2391.00,2525.02,2727.94,599.68,600.62,44.53,0000 0000 0000 0000 000000
2015-10-10 01:14:11,0.02,3.11,0.00,23.27,27.87,30.71,14.59,48.67,1025.88,2033.19,2390.99,2525.00,2727.47,599.54,600.52,44.58,0000 0000 0000 0000 000000
2015-10-10 01:19:13,0.03,3.11,0.00,23.35,27.87,30.69,14.62,48.65,1025.88,2033.25,2390.79,2524.97,2727.05,599.62,600.21,44.63,0000 0000 0000 0000 000000
2015-10-10 01:24:14,0.03,3.11,0.00,23.29,27.87,30.68,14.65,48.67,1025.89,2033.32,2390.14,2524.81,2727.00,599.99,600.85,44.68,0000 0000 0000 0000 000000
2015-10-10 01:29:15,-0.00,3.12,0.00,23.34,27.87,30.67,14.69,48.81,1025.87,2033.20,2390.02,2524.16,2726.97,600.09,600.87,44.73,0000 0000 0000 0000 000000
2015-10-10 01:34:17,0.01,3.12,0.00,23.34,27.87,30.67,14.66,48.71,1025.87,2033.14,2390.00,2524.00,2726.65,600.14,600.80,44.78,0000 0000 0000 0000 000000
2015-10-10 01:39:18,0.02,3.12,0.00,23.26,27.87,30.68,14.65,48.78,1025.87,2033.24,2389.91,2524.00,2726.15,599.64,600.59,44.83,0000 0000 0000 0000 000000
2015-10-10 01:44:19,0.02,3.12,0.00,23.28,27.87,30.67,14.67,48.67,1025.87,2033.16,2389.35,2524.00,2726.02,600.24,601.07,44.88,0000 0000 0000 0000 000000
2015-10-10 01:49:20,0.02,3.12,0.00,23.33,27.87,30.66,14.68,48.64,1025.88,2033.11,2389.03,2523.68,2725.98,600.52,601.34,44.94,0000 0000 0000 0000 000000
2015-10-10 01:54:22,0.02,3.12,0.00,23.37,27.87,30.66,14.73,48.61,1025.88,2033.12,2388.99,2523.03,2725.71,600.29,600.98,44.99,0000 0000 0000 0000 000000
2015-10-10 01:59:23,0.02,3.12,0.00,23.28,27.87,30.69,14.65,48.63,1025.87,2033.13,2388.78,2523.00,2725.10,600.14,601.06,45.04,0000 0000 0000 0000 000000
2015-10-10 02:04:24,0.02,3.12,0.00,23.25,27.87,30.66,14.74,48.72,1025.88,2033.19,2388.15,2522.99,2725.01,600.07,601.08,45.09,0000 0000 0000 0000 000000
2015-10-10 02:09:26,0.02,3.12,0.00,23.34,27.87,30.67,14.64,48.58,1025.88,2033.25,2388.01,2522.81,2724.99,599.90,600.78,45.14,0000 0000 0000 0000 000000
2015-10-10 02:14:27,0.04,3.12,0.00,23.23,27.87,30.70,14.62,48.63,1025.89,2033.31,2387.96,2522.14,2724.82,599.99,601.05,45.19,0000 0000 0000 0000 000000
2015-10-10 02:19:29,0.02,3.13,0.00,23.28,27.87,30.65,14.60,48.75,1025.88,2033.20,2387.32,2521.99,2724.10,599.83,600.87,45.24,0000 0000 0000 0000 000000
2015-10-10 02:24:30,0.03,3.13,0.00,23.24,27.87,30.69,14.69,48.70,1025.89,2033.27,2387.02,2521.87,2723.99,600.34,601.17,45.29,0000 0000 0000 0000 000000
2015-10-10 02:29:31,0.05,3.13,0.00,23.16,27.86,30.71,14.64,48.76,1025.85,2033.16,2386.25,2521.05,2723.22,600.10,601.30,45.34,0000 0000 0000 0000 000000
2015-10-10 02:34:32,0.01,3.13,0.00,23.27,27.86,30.68,14.68,48.87,1025.70,2033.19,2385.91,2520.89,2722.99,600.28,601.08,45.39,0000 0000 0000 0000 000000
2015-10-10 02:39:34,0.06,3.13,0.00,23.20,27.87,30.72,14.60,48.74,1025.71,2033.11,2385.05,2520.08,2722.18,599.93,600.80,45.44,0000 0000 0000 0000 000000
2015-10-10 02:44:35,0.03,3.14,0.00,23.12,27.85,30.71,14.66,49.00,1025.57,2033.14,2384.46,2520.00,2722.00,599.61,600.65,45.49,0000 0000 0000 0000 000000
2015-10-10 02:49:37,0.02,3.14,0.00,23.23,27.86,30.67,14.66,48.79,1025.54,2033.13,2384.02,2519.66,2721.76,600.13,600.93,45.54,0000 0000 0000 0000 000000
2015-10-10 02:54:38,0.03,3.14,0.00,23.14,27.85,30.74,14.67,48.89,1025.63,2033.12,2383.86,2519.07,2721.08,600.00,601.10,45.59,0000 0000 0000 0000 000000
2015-10-10 02:59:39,0.01,3.14,0.00,23.18,27.86,30.68,14.64,48.92,1025.55,2033.08,2383.26,2519.00,2721.00,600.13,600.91,45.64,0000 0000 0000 0000 000000
2015-10-10 03:04:40,0.00,3.14,0.00,23.20,27.86,30.69,14.63,48.85,1025.76,2033.12,2383.01,2518.99,2720.99,599.95,600.93,45.69,0000 0000 0000 0000 000000
2015-10-10 03:09:42,0.01,3.14,0.00,23.09,27.86,30.70,14.69,48.88,1025.76,2033.07,2382.98,2518.85,2720.83,600.07,601.28,45.74,0000 0000 0000 0000 000000
2015-10-10 03:14:43,0.06,3.14,0.00,23.25,27.86,30.68,14.69,48.83,1025.80,2033.10,2382.56,2518.18,2720.11,600.08,600.97,45.79,0000 0000 0000 0000 000000
2015-10-10 03:19:44,0.02,3.15,0.00,23.24,27.86,30.71,14.67,48.88,1025.82,2033.16,2382.03,2518.01,2720.00,600.51,601.46,45.85,0000 0000 0000 0000 000000
2015-10-10 03:24:46,0.10,3.15,0.00,23.25,27.87,30.69,14.66,48.91,1025.87,2033.14,2380.88,2517.21,2719.02,600.09,601.11,45.90,0000 0000 0000 0000 000000
2015-10-10 03:29:47,0.09,3.15,0.00,23.28,27.87,30.71,14.68,48.80,1025.87,2033.11,2379.56,2516.08,2717.91,600.00,600.91,45.95,0000 0000 0000 0000 000000
2015-10-10 03:34:48,0.09,3.16,0.00,23.23,27.87,30.69,14.58,48.83,1025.86,2033.13,2378.15,2515.11,2716.80,599.55,600.74,46.00,0000 0000 0000 0000 000000
2015-10-10 03:39:50,0.09,3.16,0.00,23.29,27.87,30.69,14.69,48.85,1025.86,2033.13,2376.84,2514.15,2715.83,600.01,600.92,46.05,0000 0000 0000 0000 000000
2015-10-10 03:44:51,0.09,3.17,0.00,23.21,27.87,30.71,14.72,48.91,1025.86,2033.14,2375.67,2513.26,2714.95,600.45,601.37,46.10,0000 0000 0000 0000 000000
2015-10-10 03:49:52,0.05,3.17,0.00,23.26,27.87,30.71,14.61,48.96,1025.84,2033.06,2374.78,2512.63,2714.08,599.21,600.27,46.15,0000 0000 0000 0000 000000
2015-10-10 03:54:53,0.05,3.17,0.00,23.27,27.87,30.70,14.69,48.78,1025.82,2033.07,2373.93,2512.00,2713.55,600.29,601.26,46.20,0000 0000 0000 0000 000000
2015-10-10 03:59:54,0.07,3.18,0.00,23.32,27.87,30.68,14.59,48.79,1025.74,2033.16,2373.05,2511.25,2712.83,599.58,600.37,46.25,0000 0000 0000 0000 000000
2015-10-10 04:04:56,0.05,3.18,0.00,23.33,27.87,30.66,14.64,48.92,1025.54,2033.09,2372.19,2510.81,2712.05,600.18,600.77,46.30,0000 0000 0000 0000 000000
2015-10-10 04:09:57,0.05,3.18,0.00,23.31,27.87,30.66,14.72,48.98,1025.45,2033.08,2371.70,2510.02,2711.55,600.01,600.62,46.35,0000 0000 0000 0000 000000
2015-10-10 04:14:58,0.15,3.19,0.00,23.31,27.87,30.71,14.65,48.94,1025.51,2033.07,2369.98,2508.45,2709.69,600.13,600.65,46.40,0000 0000 0000 0000 000000
2015-10-10 04:19:59,0.04,3.19,0.00,23.15,27.85,30.70,14.73,49.08,1025.63,2033.10,2369.03,2507.85,2708.95,599.76,600.81,46.45,0000 0000 0000 0000 000000
2015-10-10 04:25:00,0.11,3.20,0.00,23.27,27.85,30.67,14.67,49.05,1025.60,2033.10,2368.04,2506.81,2707.92,600.15,601.02,46.50,0000 0000 0000 0000 000000
2015-10-10 04:30:02,0.18,3.21,0.00,23.19,27.85,30.69,14.55,48.99,1025.58,2033.10,2366.17,2505.01,2706.07,599.64,600.62,46.55,0000 0000 0000 0000 000000
2015-10-10 04:35:04,0.19,3.21,0.00,23.06,27.85,30.68,14.72,49.01,1025.55,2033.10,2363.65,2502.82,2703.77,600.09,601.24,46.60,0000 0000 0000 0000 000000
2015-10-10 04:40:05,0.21,3.23,0.00,23.25,27.85,30.67,14.64,48.96,1025.50,2033.13,2361.12,2500.51,2701.35,599.87,600.59,46.65,0000 0000 0000 0000 000000
2015-10-10 04:45:06,0.11,3.23,0.00,23.26,27.85,30.69,14.64,48.90,1025.50,2033.08,2359.49,2498.94,2699.73,600.09,600.80,46.70,0000 0000 0000 0000 000000
2015-10-10 04:50:07,0.11,3.24,0.00,23.09,27.85,30.69,14.70,48.99,1025.54,2033.16,2358.13,2497.80,2698.53,600.03,601.09,46.75,0000 0000 0000 0000 000000
2015-10-10 04:55:08,0.12,3.25,0.00,23.21,27.85,30.68,14.68,48.93,1025.53,2033.26,2356.73,2496.58,2697.25,600.69,601.64,46.81,0000 0000 0000 0000 000000
2015-10-10 05:00:10,0.18,3.25,0.00,23.13,27.85,30.72,14.68,49.09,1025.52,2033.47,2354.95,2495.13,2695.62,600.01,600.98,46.86,0000 0000 0000 0000 000000
2015-10-10 05:05:11,0.17,3.26,0.00,23.08,27.85,30.68,14.66,48.98,1025.50,2033.45,2352.81,2493.40,2693.71,600.18,601.26,46.91,0000 0000 0000 0000 000000
2015-10-10 05:10:12,0.08,3.27,0.00,23.21,27.85,30.68,14.68,49.02,1025.51,2033.41,2351.17,2492.01,2692.19,600.09,600.92,46.96,0000 0000 0000 0000 000000
2015-10-10 05:15:13,0.10,3.27,0.00,23.06,27.84,30.73,14.64,49.08,1025.53,2033.58,2350.12,2491.09,2691.33,599.59,600.81,47.01,0000 0000 0000 0000 000000
2015-10-10 05:20:14,-0.00,3.28,0.00,23.09,27.83,30.67,14.63,48.97,1025.50,2033.46,2349.86,2490.97,2691.00,600.27,601.36,47.06,0000 0000 0000 0000 000000
2015-10-10 05:25:16,0.04,3.28,0.00,23.18,27.84,30.69,14.61,48.85,1025.43,2033.37,2349.10,2490.48,2690.81,599.64,600.52,47.11,0000 0000 0000 0000 000000
2015-10-10 05:30:17,0.01,3.28,0.00,23.09,27.83,30.69,14.67,48.88,1025.42,2033.27,2348.98,2490.03,2690.12,600.06,601.16,47.16,0000 0000 0000 0000 000000
2015-10-10 05:35:19,0.03,3.28,0.00,23.20,27.83,30.69,14.71,48.92,1025.41,2033.30,2348.36,2489.99,2690.00,600.29,601.23,47.21,0000 0000 0000 0000 000000
2015-10-10 05:40:20,0.05,3.28,0.00,23.12,27.83,30.69,14.61,48.88,1025.41,2033.34,2347.88,2489.52,2689.48,599.91,600.81,47.26,0000 0000 0000 0000 000000
2015-10-10 05:45:21,0.02,3.28,0.00,23.09,27.82,30.69,14.64,48.88,1025.41,2033.19,2347.08,2489.01,2689.01,599.79,600.77,47.31,0000 0000 0000 0000 000000
2015-10-10 05:50:22,-0.00,3.28,0.00,23.13,27.82,30.69,14.63,48.99,1025.41,2033.20,2346.94,2488.97,2688.93,599.89,600.84,47.36,0000 0000 0000 0000 000000
2015-10-10 05:55:23,0.05,3.29,0.00,23.06,27.82,30.69,14.69,48.87,1025.42,2033.20,2346.23,2488.75,2688.36,600.17,601.25,47.41,0000 0000 0000 0000 000000
2015-10-10 06:00:24,0.05,3.29,0.00,23.15,27.82,30.70,14.66,48.92,1025.42,2033.37,2345.99,2488.10,2688.01,600.06,600.97,47.46,0000 0000 0000 0000 000000
2015-10-10 06:05:26,0.04,3.29,0.00,22.99,27.82,30.71,14.68,49.02,1025.42,2033.57,2345.38,2488.00,2687.85,599.64,600.91,47.51,0000 0000 0000 0000 000000
2015-10-10 06:10:27,0.03,3.29,0.00,23.02,27.82,30.66,14.68,49.08,1025.42,2033.50,2345.00,2487.65,2687.11,599.75,601.07,47.56,0000 0000 0000 0000 000000
2015-10-10 06:15:28,0.03,3.30,0.00,23.11,27.82,30.70,14.67,48.98,1025.41,2033.48,2344.36,2487.05,2687.00,599.72,600.69,47.61,0000 0000 0000 0000 000000
2015-10-10 06:20:29,0.02,3.30,0.00,22.93,27.82,30.72,14.71,48.94,1025.41,2033.38,2343.92,2486.88,2686.53,600.59,601.81,47.66,0000 0000 0000 0000 000000
2015-10-10 06:25:31,0.04,3.30,0.00,22.99,27.82,30.68,14.65,49.08,1025.41,2033.21,2343.08,2486.07,2685.99,599.87,601.09,47.71,0000 0000 0000 0000 000000
2015-10-10 06:30:32,0.04,3.30,0.00,23.07,27.82,30.68,14.67,48.77,1025.41,2033.29,2342.74,2485.99,2685.55,599.98,601.14,47.77,0000 0000 0000 0000 000000
2015-10-10 06:35:33,0.05,3.30,0.00,22.91,27.82,30.71,14.64,49.01,1025.42,2033.40,2342.03,2485.44,2685.02,599.85,601.21,47.82,0000 0000 0000 0000 000000
2015-10-10 06:40:34,0.03,3.30,0.00,22.98,27.82,30.68,14.72,48.84,1025.43,2033.40,2341.58,2485.02,2684.80,600.16,601.46,47.87,0000 0000 0000 0000 000000
2015-10-10 06:45:36,0.05,3.31,0.00,23.05,27.82,30.70,14.68,48.63,1025.45,2033.45,2340.89,2484.70,2684.07,600.23,601.34,47.92,0000 0000 0000 0000 000000
2015-10-10 06:50:37,0.02,3.31,0.00,22.86,27.82,30.78,14.72,48.87,1025.46,2033.21,2340.07,2484.03,2683.72,600.13,601.71,47.97,0000 0000 0000 0000 000000
2015-10-10 06:55:38,0.04,3.31,0.00,22.86,27.82,30.71,14.72,48.87,1025.49,2033.38,2339.84,2484.00,2683.08,600.35,601.85,48.02,0000 0000 0000 0000 000000
2015-10-10 07:00:40,0.02,3.31,0.00,23.02,27.82,30.70,14.68,48.82,1025.55,2033.29,2339.10,2483.57,2682.99,600.01,601.25,48.07,0000 0000 0000 0000 000000
2015-10-10 07:05:41,0.05,3.31,0.00,22.90,27.82,30.75,14.72,48.96,1025.68,2033.20,2338.60,2483.02,2682.42,600.07,601.63,48.12,0000 0000 0000 0000 000000
2015-10-10 07:10:42,0.08,3.32,0.00,22.83,27.82,30.70,14.66,48.84,1025.79,2033.44,2337.76,2482.50,2681.96,600.21,601.97,48.17,0000 0000 0000 0000 000000
2015-10-10 07:15:43,0.02,3.32,0.00,23.01,27.82,30.68,14.64,48.77,1025.80,2033.38,2337.01,2482.01,2681.16,599.75,601.07,48.22,0000 0000 0000 0000 000000
2015-10-10 07:20:45,0.05,3.32,0.00,22.93,27.82,30.70,14.69,48.87,1025.78,2033.26,2336.20,2481.50,2680.88,599.92,601.50,48.27,0000 0000 0000 0000 000000
2015-10-10 07:25:46,0.06,3.33,0.00,22.88,27.82,30.69,14.77,48.85,1025.83,2033.19,2335.23,2480.76,2680.04,600.32,602.01,48.32,0000 0000 0000 0000 000000
2015-10-10 07:30:47,0.03,3.33,0.00,23.07,27.82,30.69,14.72,48.92,1025.85,2033.24,2334.99,2480.08,2679.79,599.91,601.22,48.37,0000 0000 0000 0000 000000
2015-10-10 07:35:48,0.02,3.33,0.00,22.96,27.82,30.70,14.70,48.94,1025.86,2033.22,2334.60,2480.02,2679.22,600.22,601.80,48.42,0000 0000 0000 0000 000000
2015-10-10 07:40:50,0.01,3.33,0.00,22.85,27.82,30.71,14.70,48.99,1025.89,2033.21,2334.06,2480.00,2679.03,600.20,602.03,48.47,0000 0000 0000 0000 000000
2015-10-10 07:45:52,-0.00,3.33,0.00,23.01,27.82,30.68,14.71,48.87,1025.88,2033.22,2334.00,2480.00,2679.00,600.57,602.07,48.52,0000 0000 0000 0000 000000
2015-10-10 07:50:53,0.02,3.33,0.00,22.94,27.82,30.72,14.65,48.87,1025.89,2033.12,2333.74,2479.71,2678.83,599.91,601.48,48.57,0000 0000 0000 0000 000000
2015-10-10 07:55:54,0.06,3.34,0.00,22.90,27.82,30.67,14.69,48.83,1025.89,2033.20,2333.02,2479.04,2678.07,600.26,602.09,48.62,0000 0000 0000 0000 000000
2015-10-10 08:00:55,0.04,3.34,0.00,23.08,27.82,30.68,14.66,48.83,1025.89,2033.38,2332.71,2478.94,2677.97,599.97,601.29,48.68,0000 0000 0000 0000 000000
2015-10-10 08:05:57,0.03,3.34,0.00,22.95,27.82,30.75,14.70,48.93,1025.89,2033.35,2332.05,2478.35,2677.53,599.71,601.18,48.73,0000 0000 0000 0000 000000
2015-10-10 08:10:58,0.01,3.34,0.00,22.87,27.82,30.71,14.72,48.91,1025.89,2033.27,2332.00,2478.07,2677.14,599.88,601.50,48.78,0000 0000 0000 0000 000000
2015-10-10 08:15:59,0.01,3.34,0.00,23.03,27.82,30.68,14.72,48.98,1025.89,2033.21,2332.00,2478.02,2677.01,600.27,601.63,48.83,0000 0000 0000 0000 000000
2015-10-10 08:21:00,-0.01,3.34,0.00,22.90,27.82,30.75,14.69,48.88,1025.90,2033.16,2331.96,2478.00,2677.00,600.23,601.91,48.88,0000 0000 0000 0000 000000
2015-10-10 08:26:01,-0.00,3.34,0.00,22.87,27.82,30.69,14.73,49.05,1025.92,2033.11,2331.75,2478.00,2676.99,600.10,601.88,48.93,0000 0000 0000 0000 000000
2015-10-10 08:31:02,0.02,3.34,0.00,23.04,27.82,30.68,14.69,48.79,1025.92,2033.08,2331.16,2477.99,2676.97,600.13,601.62,48.98,0000 0000 0000 0000 000000
2015-10-10 08:36:03,0.01,3.34,0.00,22.88,27.82,30.74,14.63,48.90,1025.93,2033.14,2331.04,2477.97,2676.93,599.91,601.70,49.03,0000 0000 0000 0000 000000
2015-10-10 08:41:05,0.01,3.34,0.00,22.88,27.82,30.70,14.74,49.02,1025.95,2033.16,2331.00,2477.77,2676.64,600.08,601.90,49.08,0000 0000 0000 0000 000000
2015-10-10 08:46:06,0.02,3.34,0.00,23.02,27.82,30.71,14.71,49.09,1025.95,2033.11,2330.99,2477.26,2676.13,599.95,601.32,49.13,0000 0000 0000 0000 000000
2015-10-10 08:51:07,0.02,3.34,0.00,22.84,27.82,30.73,14.69,49.05,1025.99,2033.09,2330.57,2477.01,2676.00,600.09,601.86,49.18,0000 0000 0000 0000 000000
2015-10-10 08:56:08,0.01,3.34,0.00,22.85,27.82,30.68,14.70,49.07,1025.97,2033.08,2330.08,2477.00,2676.00,600.05,601.69,49.23,0000 0000 0000 0000 000000
2015-10-10 09:01:10,0.01,3.35,0.00,22.98,27.82,30.70,14.64,48.95,1025.97,2033.13,2330.01,2477.00,2675.98,599.71,601.36,49.28,0000 0000 0000 0000 000000
2015-10-10 09:06:11,-0.01,3.35,0.00,22.83,27.82,30.74,14.75,49.03,1025.95,2033.07,2330.00,2476.98,2675.90,599.89,601.79,49.33,0000 0000 0000 0000 000000
2015-10-10 09:11:12,0.01,3.35,0.00,22.80,27.82,30.71,14.79,49.10,1025.94,2033.05,2329.97,2476.89,2675.42,600.23,602.14,49.38,0000 0000 0000 0000 000000
2015-10-10 09:16:14,0.04,3.35,0.00,22.97,27.82,30.69,14.72,48.96,1025.95,2033.08,2329.71,2476.39,2675.08,600.00,601.63,49.43,0000 0000 0000 0000 000000
2015-10-10 09:21:15,0.02,3.35,0.00,22.89,27.82,30.71,14.71,49.02,1025.97,2033.08,2329.17,2476.04,2675.01,599.93,601.68,49.48,0000 0000 0000 0000 000000
2015-10-10 09:26:16,-0.00,3.35,0.00,22.96,27.82,30.69,14.69,49.06,1025.96,2033.04,2329.00,2476.00,2674.99,600.11,601.83,49.53,0000 0000 0000 0000 000000
2015-10-10 09:31:17,0.00,3.35,0.00,22.97,27.82,30.75,14.74,49.00,1025.97,2033.04,2328.99,2476.00,2674.94,600.28,601.74,49.58,0000 0000 0000 0000 000000
2015-10-10 09:36:18,0.01,3.35,0.00,22.79,27.82,30.73,14.74,49.03,1026.08,2033.03,2328.94,2475.99,2674.72,599.65,601.71,49.63,0000 0000 0000 0000 000000
2015-10-10 09:41:20,0.01,3.35,0.00,22.89,27.82,30.67,14.78,49.06,1026.14,2033.05,2328.75,2475.96,2674.36,600.12,601.96,49.69,0000 0000 0000 0000 000000
2015-10-10 09:46:21,0.00,3.35,0.00,22.96,27.82,30.70,14.68,48.95,1026.17,2033.06,2328.61,2475.97,2674.23,600.05,601.88,49.74,0000 0000 0000 0000 000000
2015-10-10 09:51:22,0.01,3.35,0.00,22.84,27.82,30.69,14.64,48.83,1026.22,2033.11,2328.46,2475.96,2674.14,599.57,601.68,49.79,0000 0000 0000 0000 000000
2015-10-10 09:56:23,0.01,3.35,0.00,22.97,27.82,30.68,14.73,48.73,1026.26,2033.06,2328.11,2475.77,2674.03,600.39,602.11,49.84,0000 0000 0000 0000 000000
2015-10-10 10:01:24,0.02,3.35,0.00,22.90,27.82,30.69,14.73,48.86,1026.05,2033.06,2328.03,2475.28,2674.00,600.05,601.76,49.89,0000 0000 0000 0000 000000
2015-10-10 10:06:26,0.08,3.36,0.00,22.78,27.82,30.70,14.79,49.13,1025.92,2033.05,2327.37,2474.67,2673.34,600.19,602.14,49.94,0000 0000 0000 0000 000000
2015-10-10 10:11:27,0.01,3.36,0.00,22.94,27.82,30.68,14.72,49.13,1025.91,2033.01,2326.98,2474.03,2672.98,599.92,601.53,49.99,0000 0000 0000 0000 000000
2015-10-10 10:16:28,0.02,3.36,0.00,22.92,27.82,30.70,14.66,49.12,1025.91,2033.04,2326.67,2473.99,2672.90,599.87,601.52,50.04,0000 0000 0000 0000 000000
2015-10-10 10:21:29,0.02,3.36,0.00,22.75,27.82,30.71,14.72,49.28,1025.91,2033.10,2326.10,2473.99,2672.54,600.34,602.30,50.09,0000 0000 0000 0000 000000
2015-10-10 10:26:31,0.00,3.36,0.00,22.89,27.82,30.68,14.67,49.12,1025.92,2033.05,2326.01,2473.98,2672.08,599.95,601.68,50.14,0000 0000 0000 0000 000000
2015-10-10 10:31:32,-0.00,3.36,0.00,22.90,27.82,30.70,14.62,48.98,1025.96,2033.07,2326.00,2473.95,2672.02,599.86,601.61,50.19,0000 0000 0000 0000 000000
2015-10-10 10:36:33,-0.00,3.36,0.00,22.81,27.82,30.70,14.72,49.03,1025.98,2033.04,2326.00,2473.85,2672.00,599.93,601.91,50.24,0000 0000 0000 0000 000000
2015-10-10 10:41:34,0.02,3.36,0.00,22.97,27.82,30.68,14.70,48.98,1025.95,2033.03,2325.98,2473.37,2672.00,599.72,601.32,50.29,0000 0000 0000 0000 000000
2015-10-10 10:46:36,0.01,3.36,0.00,22.84,27.82,30.72,14.72,48.97,1025.93,2033.01,2325.88,2473.10,2671.99,599.87,601.62,50.34,0000 0000 0000 0000 000000
2015-10-10 10:51:37,0.02,3.36,0.00,22.79,27.82,30.70,14.67,49.13,1025.91,2033.03,2325.29,2473.03,2671.97,599.87,601.90,50.39,0000 0000 0000 0000 000000
2015-10-10 10:56:38,0.00,3.36,0.00,22.97,27.82,30.67,14.66,48.99,1025.91,2033.02,2325.05,2473.00,2671.92,599.83,601.45,50.44,0000 0000 0000 0000 000000
2015-10-10 11:01:39,0.01,3.36,0.00,22.85,27.82,30.70,14.75,49.08,1025.90,2033.01,2325.00,2473.00,2671.53,600.02,601.73,50.49,0000 0000 0000 0000 000000
2015-10-10 11:06:41,0.01,3.37,0.00,22.83,27.82,30.70,14.71,49.09,1025.90,2033.03,2325.00,2473.00,2671.20,600.02,601.87,50.54,0000 0000 0000 0000 000000
2015-10-10 11:11:42,0.00,3.37,0.00,22.98,27.82,30.69,14.68,49.05,1025.90,2033.02,2324.99,2473.00,2671.05,599.99,601.51,50.59,0000 0000 0000 0000 000000
2015-10-10 11:16:43,0.00,3.37,0.00,22.81,27.82,30.73,14.64,48.96,1025.90,2033.03,2324.94,2472.96,2671.02,600.15,602.08,50.64,0000 0000 0000 0000 000000
2015-10-10 11:21:44,0.01,3.37,0.00,22.80,27.82,30.70,14.74,48.97,1025.90,2033.03,2324.68,2472.91,2671.00,600.36,602.24,50.70,0000 0000 0000 0000 000000
2015-10-10 11:26:45,0.03,3.37,0.00,22.96,27.82,30.69,14.64,48.83,1025.90,2033.02,2324.21,2472.60,2671.00,599.58,601.09,50.75,0000 0000 0000 0000 000000
2015-10-10 11:31:46,0.01,3.37,0.00,22.80,27.82,30.75,14.69,48.81,1025.90,2033.03,2324.05,2472.32,2670.99,599.98,601.92,50.80,0000 0000 0000 0000 000000
2015-10-10 11:36:47,0.01,3.37,0.00,22.75,27.82,30.71,14.80,48.75,1025.91,2033.03,2324.00,2472.09,2670.97,600.16,602.20,50.85,0000 0000 0000 0000 000000
2015-10-10 11:41:48,0.00,3.37,0.00,22.93,27.82,30.68,14.69,48.64,1025.92,2033.05,2324.00,2472.03,2670.94,600.05,601.74,50.90,0000 0000 0000 0000 000000
2015-10-10 11:46:50,0.00,3.37,0.00,22.87,27.82,30.71,14.82,48.53,1025.94,2033.05,2323.99,2472.02,2670.72,600.10,601.98,50.95,0000 0000 0000 0000 000000
2015-10-10 11:51:51,0.01,3.37,0.00,22.79,27.82,30.70,14.62,48.32,1025.98,2033.03,2323.96,2472.00,2670.31,599.95,601.92,51.00,0000 0000 0000 0000 000000
2015-10-10 11:56:52,0.00,3.37,0.00,22.96,27.82,30.69,14.65,48.33,1026.16,2033.02,2323.83,2472.00,2670.05,599.86,601.67,51.05,0000 0000 0000 0000 000000
2015-10-10 12:01:54,0.01,3.37,0.00,22.86,27.82,30.72,14.73,48.39,1026.09,2033.05,2323.62,2471.99,2670.01,600.18,601.90,51.10,0000 0000 0000 0000 000000
2015-10-10 12:06:55,0.00,3.37,0.00,22.81,27.82,30.69,14.73,48.58,1025.97,2033.04,2323.17,2471.99,2670.01,600.05,601.77,51.15,0000 0000 0000 0000 000000
2015-10-10 12:11:56,0.01,3.37,0.00,23.01,27.82,30.64,14.65,48.54,1025.92,2033.05,2323.02,2471.95,2670.00,599.86,601.29,51.20,0000 0000 0000 0000 000000
2015-10-10 12:16:57,-0.00,3.37,0.00,22.91,27.83,30.72,14.61,48.41,1025.91,2033.03,2323.00,2471.87,2669.99,599.63,601.29,51.25,0000 0000 0000 0000 000000
2015-10-10 12:21:58,0.01,3.37,0.00,22.88,27.84,30.70,14.72,48.62,1025.91,2033.02,2323.00,2471.56,2669.98,599.95,601.64,51.30,0000 0000 0000 0000 000000
2015-10-10 12:26:59,0.00,3.37,0.00,23.02,27.85,30.68,14.67,48.53,1025.90,2033.03,2323.00,2471.56,2669.98,599.67,601.13,51.35,0000 0000 0000 0000 000000
2015-10-10 12:32:01,0.00,3.37,0.00,22.88,27.85,30.71,14.65,48.44,1025.90,2033.04,2323.00,2471.36,2669.96,599.80,601.49,51.40,0000 0000 0000 0000 000000
2015-10-10 12:37:02,0.02,3.37,0.00,23.02,27.85,30.68,14.72,48.51,1025.90,2033.03,2322.94,2471.07,2669.64,600.53,601.96,51.45,0000 0000 0000 0000 000000
2015-10-10 12:42:04,0.02,3.37,0.00,23.03,27.85,30.72,14.74,48.64,1025.90,2033.01,2322.55,2471.00,2669.15,599.92,601.56,51.50,0000 0000 0000 0000 000000
2015-10-10 12:47:05,0.01,3.38,0.00,22.94,27.85,30.70,14.65,48.57,1025.89,2033.02,2322.12,2471.00,2669.02,600.46,602.03,51.55,0000 0000 0000 0000 000000
2015-10-10 12:52:06,0.00,3.38,0.00,23.06,27.85,30.71,14.70,48.61,1025.89,2033.02,2322.04,2471.00,2669.00,600.22,601.62,51.61,0000 0000 0000 0000 000000
2015-10-10 12:57:07,-0.00,3.38,0.00,22.92,27.85,30.73,14.67,48.79,1025.89,2033.02,2322.00,2471.00,2669.00,599.88,601.54,51.66,0000 0000 0000 0000 000000